#timestamp,LO_Frequency,Hit 
1505199615.2,286046999.4,N
1505199635.9,286046997.9,N
1505199655.7,286046993.7,P
1505199675.6,286046999.6,N
1505199695.4,286046996.9,N
1505199715.2,286046998.5,N
1505199735.1,286047000.5,N
1505199736.0,286047000.5,N
1505199755.8,286046998.7,N
1505199775.6,286047000.9,N
1505199795.5,286046999.7,N
1505199815.3,286047000.0,N
1505199835.1,286047000.8,N
1505199855.9,286046996.6,N
1505199875.7,286047002.8,N
1505199895.5,286047001.8,N
1505199915.4,286047002.3,N
1505199935.2,286046998.6,N
1505199955.0,286046998.2,N
1505199955.9,286046998.2,N
1505199975.7,286046998.2,N
1505199995.6,286046998.3,N
1505200015.4,286046996.8,N
1505200035.2,286047000.9,N
1505200055.1,286046997.7,N
1505200056.0,286046997.7,N
1505200075.8,286046997.5,N
1505200095.6,286046995.2,N
1505200115.5,286046994.5,N
1505200135.3,286046996.6,N
1505200155.1,286046997.1,N
1505200175.9,286046995.5,N
1505200195.7,286046995.3,N
1505200215.5,286046997.8,N
1505200235.4,286046995.0,N
1505200255.2,286046997.0,N
1505200275.0,286046996.5,N
1505200275.9,286046996.5,N
1505200295.7,286046999.0,N
1505200315.6,286046999.5,N
1505200335.4,286046998.7,N
1505200355.2,286047001.0,N
1505200375.1,286047000.1,N
1505200376.0,286047000.1,N
1505200395.8,286047002.0,N
1505200415.6,286047000.1,N
1505200435.5,286047000.9,N
1505200455.3,286046996.6,N
1505200475.1,286046997.5,N
1505200495.9,286046993.5,P
1505200515.7,286046995.3,N
1505200535.5,286046996.7,N
1505200555.4,286046999.2,N
1505200575.2,286046999.0,N
1505200595.0,286046999.5,N
1505200595.9,286046999.5,N
1505200615.8,286047001.2,N
1505200635.6,286047001.1,N
1505200655.4,286046998.2,N
1505200675.3,286046998.7,N
1505200695.1,286047002.5,N
1505200696.0,286047002.5,N
1505200715.8,286047002.7,N
1505200735.7,286046998.5,N
1505200755.5,286046996.9,N
1505200775.3,286046998.2,N
1505200795.1,286047004.3,N
1505200815.9,286047001.6,N
1505200835.7,286047001.6,N
1505200855.5,286046999.8,N
1505200875.4,286047000.1,N
1505200895.2,286046999.8,N
1505200915.0,286046999.7,N
1505200915.9,286046999.7,N
1505200935.8,286046999.1,N
1505200955.6,286047001.0,N
1505200975.4,286047002.8,N
1505200995.3,286047000.3,N
1505201015.1,286047000.0,N
1505201016.0,286047000.0,N
1505201035.8,286047000.7,N
1505201055.7,286047001.9,N
1505201075.5,286047001.7,N
1505201095.3,286047003.6,N
1505201115.2,286047005.8,P
1505201135.9,286047004.6,N
1505201155.7,286047004.8,N
1505201175.6,286047005.4,N
1505201195.4,286047004.0,N
1505201215.2,286047003.2,N
1505201235.0,286047003.4,N
1505201235.9,286047003.4,N
1505201255.8,286047005.3,P
1505201275.6,286047002.3,P
1505201295.5,286047002.1,N
1505201315.3,286046996.5,N
1505201335.1,286046996.6,N
1505201355.9,286046999.1,N
1505201375.7,286046997.8,N
1505201395.5,286046993.3,N
1505201415.3,286046994.7,N
1505201435.2,286046990.7,N
1505201455.0,286046992.4,N
1505201455.9,286046992.4,N
1505201475.7,286046994.4,N
1505201495.6,286046993.8,N
1505201515.4,286046997.5,N
1505201535.2,286046995.3,N
1505201555.1,286046995.3,N
1505201556.0,286046995.3,N
1505201575.8,286046997.6,N
1505201595.6,286046999.1,N
1505201615.5,286047001.2,N
1505201635.3,286047002.7,N
1505201655.1,286047002.5,N
1505201675.9,286047001.9,N
1505201695.7,286047002.7,N
1505201715.5,286047001.8,N
1505201735.3,286047001.5,N
1505201755.2,286047001.9,N
1505201775.0,286046998.1,N
1505201775.9,286046998.1,N
1505201795.7,286047002.6,N
1505201815.6,286047004.1,N
1505201835.4,286047002.5,N
1505201855.2,286047001.6,N
1505201875.1,286047001.9,N
1505201876.0,286047001.9,N
1505201895.8,286047001.7,N
1505201915.6,286047003.2,N
1505201935.5,286047001.9,N
1505201955.3,286047003.1,N
1505201975.1,286047004.4,N
1505201995.9,286047000.8,N
1505202015.7,286046997.7,N
1505202035.5,286046998.3,N
1505202055.3,286046996.7,N
1505202075.2,286046997.5,N
1505202095.0,286046996.5,N
1505202095.9,286046996.5,N
1505202115.7,286046999.1,N
1505202135.6,286046999.6,N
1505202155.4,286046995.0,N
1505202175.2,286046995.8,N
1505202195.1,286046995.0,N
1505202196.0,286046995.0,N
1505202215.8,286046997.3,N
1505202235.6,286046997.4,N
1505202255.5,286046996.7,N
1505202275.3,286046998.8,N
1505202295.1,286046999.3,N
1505202315.9,286046997.0,N
1505202335.7,286046996.6,N
1505202355.5,286046999.5,N
1505202375.4,286046999.5,N
1505202395.2,286046996.5,N
1505202415.0,286046998.5,N
1505202415.9,286046998.5,N
1505202435.8,286046996.5,N
1505202455.6,286046996.0,N
1505202475.4,286046995.5,N
1505202495.3,286046997.6,N
1505202515.1,286046995.0,N
1505202516.0,286046995.0,P
1505202535.8,286046998.9,N
1505202555.7,286046999.5,N
1505202575.5,286046998.2,N
1505202595.3,286047002.6,N
1505202615.2,286047002.4,N
1505202635.9,286047004.3,N
1505202655.7,286047004.3,N
1505202675.5,286047003.0,N
1505202695.4,286047003.1,N
1505202715.2,286047004.9,N
1505202735.0,286047005.9,N
1505202735.9,286047005.9,N
1505202755.8,286047005.8,N
1505202775.6,286047004.0,N
1505202795.4,286047002.5,N
1505202815.3,286047001.4,N
1505202835.1,286047000.0,N
1505202836.0,286047000.0,N
1505202855.8,286046998.4,N
1505202875.7,286047000.2,N
1505202895.5,286047001.3,N
1505202915.3,286047004.2,N
1505202935.2,286047001.3,N
1505202955.9,286047002.7,N
1505202975.7,286047001.7,N
1505202995.5,286047003.7,N
1505203015.4,286047003.8,N
1505203035.2,286047004.1,N
1505203055.0,286047003.6,N
1505203055.9,286047003.6,N
1505203075.8,286047001.7,N
1505203095.6,286047002.1,N
1505203115.4,286046999.9,N
1505203135.3,286047002.2,N
1505203155.1,286047002.2,N
1505203175.8,286047001.7,N
1505203195.7,286047003.8,N
